Location: Zapote
(9.9191°N, 84.0597°W)
Time: 10:28:19
(UTC-06:00)

Tiros 1 - All Passes

Search period start: 26 February 2021 00:00
Search period end: 08 March 2021 00:00
Orbit: 630 x 664 km, 48.4° (Epoch: 25 February)

Date Brightness Start Highest point End Pass type
(mag) Time Alt. Az. Time Alt. Az. Time Alt. Az.
26 Feb - 01:59:40 10° SSW 02:04:15 50° SE 02:08:53 10° NE night (unlit)
26 Feb - 03:43:48 10° W 03:46:29 15° NW 03:49:10 10° N visible
26 Feb - 12:26:33 10° NNW 12:30:55 37° NE 12:35:14 10° ESE daylight
26 Feb - 14:09:48 10° W 14:12:52 17° SW 14:15:55 10° SSW daylight
27 Feb - 00:45:49 10° SSE 00:48:14 14° SE 00:50:39 10° E night (unlit)
27 Feb - 02:25:35 10° SW 02:30:10 48° NW 02:34:48 10° NNE night (unlit)
27 Feb - 11:13:02 10° NNE 11:14:33 11° NE 11:16:04 10° ENE daylight
27 Feb - 12:52:11 10° NW 12:56:51 65° SW 13:01:27 10° SSE daylight
28 Feb - 01:09:34 10° SSW 01:14:04 44° SE 01:18:36 10° ENE night (unlit)
28 Feb - 02:53:15 10° W 02:56:15 17° NW 02:59:17 10° N night (unlit)
28 Feb - 11:36:28 10° NNW 11:40:43 33° NE 11:44:56 10° ESE daylight
28 Feb - 13:19:19 10° W 13:22:41 20° SW 13:26:03 10° S daylight
28 Feb - 23:56:15 10° SSE 23:58:03 12° SE 23:59:51 10° ESE night (unlit)
01 Mar - 01:35:20 10° SW 01:39:58 55° NW 01:44:39 10° NNE night (unlit)
01 Mar - 10:24:06 10° NE 10:24:19 10° NE 10:24:32 10° NE daylight
01 Mar - 12:01:57 10° NW 12:06:40 75° SW 12:11:20 10° SE daylight
02 Mar - 00:19:30 10° SSW 00:23:53 38° SE 00:28:18 10° ENE night (unlit)
02 Mar - 02:02:45 10° W 02:06:02 18° NW 02:09:20 10° N night (unlit)
02 Mar - 10:46:23 10° NNW 10:50:31 29° NE 10:54:37 10° ESE daylight
02 Mar - 12:28:52 10° WNW 12:32:31 22° SW 12:36:09 10° S daylight
02 Mar - 23:07:09 10° SE 23:07:52 10° SE 23:08:35 10° ESE night (unlit)
03 Mar - 00:45:06 10° SW 00:49:46 63° NW 00:54:30 10° NNE night (unlit)
03 Mar - 11:11:44 10° NW 11:16:29 85° SW 11:21:10 10° SE daylight
03 Mar - 23:29:28 10° SSW 23:33:43 34° SE 23:38:00 10° ENE night (unlit)
04 Mar - 01:12:18 10° W 01:15:49 21° NW 01:19:22 10° N night (unlit)
04 Mar - 09:56:19 10° N 10:00:18 26° NE 10:04:16 10° ESE daylight
04 Mar - 11:38:27 10° WNW 11:42:20 25° SW 11:46:11 10° S daylight
04 Mar - 23:54:54 10° SW 23:59:34 72° NW 00:04:19 10° NE night (unlit)
05 Mar - 10:21:33 10° NW 10:26:18 85° NE 10:31:00 10° SE daylight
05 Mar - 22:39:26 10° S 22:43:32 30° SE 22:47:39 10° ENE night (unlit)
06 Mar - 00:21:52 10° W 00:25:35 23° NW 00:29:21 10° N night (unlit)
06 Mar - 09:06:16 10° N 09:10:06 24° NE 09:13:53 10° E daylight
06 Mar - 10:48:05 10° WNW 10:52:09 29° SW 10:56:12 10° S daylight
06 Mar - 23:04:42 10° SW 23:09:23 82° NW 23:14:08 10° NE night (unlit)
07 Mar - 09:31:21 10° NW 09:36:06 75° NE 09:40:48 10° SE daylight
07 Mar - 21:49:27 10° S 21:53:21 26° SE 21:57:16 10° ENE night (unlit)
07 Mar - 23:31:30 10° WSW 23:35:23 25° NW 23:39:19 10° N night (unlit)
